This is the latest recevied weather packets stored in our database for station/object KO4APQ. If no packets are shown the sender has not sent any weather packets the latest 10 day(s).
| Time | Temp. | Humidity | Pressure | Rain* | Wind** | Luminosity | Snow |
|---|---|---|---|---|---|---|---|
| 1777480304 | 23.89° C | 70% | 1013.4 hPa | 0 mm | - | 988 W/m² | - |
| 1777479999 | 23.33° C | 69% | 1013.4 hPa | 0 mm | - | 1065 W/m² | - |
| 1777479697 | 22.78° C | 70% | 1013.5 hPa | 0 mm | - | 1110 W/m² | - |
| 1777479395 | 22.78° C | 73% | 1013.6 hPa | 0 mm | - | 687 W/m² | - |
| 1777479090 | 22.22° C | 74% | 1013.8 hPa | 0 mm | - | 314 W/m² | - |
| 1777478787 | 22.22° C | 74% | 1014.1 hPa | 0 mm | - | 219 W/m² | - |
| 1777478484 | 22.78° C | 71% | 1013.9 hPa | 0 mm | - | 360 W/m² | - |
| 1777478181 | 22.22° C | 75% | 1014 hPa | 0 mm | - | 1148 W/m² | - |
| 1777477877 | 21.67° C | 76% | 1013.9 hPa | 0 mm | - | 793 W/m² | - |
| 1777477573 | 21.67° C | 78% | 1013.9 hPa | 0 mm | - | 441 W/m² | - |
| 1777477269 | 21.11° C | 77% | 1014 hPa | 0 mm | - | 508 W/m² | - |
| 1777476965 | 21.11° C | 77% | 1014 hPa | 0 mm | - | 795 W/m² | - |
| 1777476664 | 21.11° C | 80% | 1014 hPa | 0 mm | - | 962 W/m² | - |
| 1777476360 | 21.11° C | 79% | 1013.9 hPa | 0 mm | - | 885 W/m² | - |
| 1777476056 | 20.56° C | 81% | 1014.1 hPa | 0 mm | - | 652 W/m² | - |
| 1777475752 | 20° C | 81% | 1014.1 hPa | 0 mm | - | 440 W/m² | - |
| 1777475449 | 20° C | 80% | 1014.1 hPa | 0 mm | - | 611 W/m² | - |
| 1777475149 | 19.44° C | 84% | 1014.1 hPa | 0 mm | - | 423 W/m² | - |
| 1777474847 | 19.44° C | 85% | 1014 hPa | 0 mm | - | 283 W/m² | - |
| 1777474542 | 19.44° C | 84% | 1014.2 hPa | 0 mm | - | 202 W/m² | - |
| 1777474239 | 19.44° C | 85% | 1014.1 hPa | 0 mm | - | 194 W/m² | - |
| 1777473936 | 19.44° C | 85% | 1014.4 hPa | 0 mm | - | 199 W/m² | - |
| 1777473634 | 19.44° C | 86% | 1014.2 hPa | 0 mm | - | 234 W/m² | - |
| 1777473330 | 18.89° C | 86% | 1014.1 hPa | 0 mm | - | 203 W/m² | - |
| 1777473026 | 18.89° C | 87% | 1014.2 hPa | 0 mm | - | 257 W/m² | - |
* Rain latest hour (hover to see other rain measurements)
** Current wind speed in m/s (hover to see current wind gust speed)